Location: Bowman Observatory
(41.0326°N, 73.6210°W)
Time: 08:05:35
(UTC-04:00)

Cosmos 2298 Rocket - Visible Passes

Search period start: 27 April 2015 00:00
Search period end: 07 May 2015 00:00
Orbit: 776 x 785 km, 74.0° (Epoch: 26 April)

Date Brightness Start Highest point End Pass type
(mag) Time Alt. Az. Time Alt. Az. Time Alt. Az.
27 Apr 6.8 05:13:59 10° SE 05:16:51 15° E 05:19:59 10° ENE visible
30 Apr 5.9 05:14:09 10° SSE 05:18:47 32° E 05:23:31 10° NE visible
01 May 6.5 04:41:51 10° SE 04:45:35 21° E 04:49:32 10° NE visible
02 May 6.8 04:10:26 10° ESE 04:12:27 13° E 04:14:48 10° ENE visible
03 May 4.4 05:15:35 10° S 05:20:51 69° ESE 05:26:09 10° NNE visible
04 May 5.2 04:42:36 10° S 04:47:34 43° ESE 04:52:36 10° NNE visible
05 May 5.9 04:10:00 10° SSE 04:14:21 27° E 04:18:50 10° NE visible
06 May 6.4 03:37:56 10° SE 03:41:10 17° E 03:44:39 10° NE visible
